Location: Unspecified
(0.0000°N, 0.0000°E)
Time: 09:20:32
(UTC+00:00)

Vanguard 2 - Pass Details

Date: 25 October 2021
Orbit: 554 x 2936 km, 32.9° (Epoch: 06 December)

Event Time Altitude Azimuth Distance (km) Brightness Sun altitude
Rises 10:31:22 0° 282° (WNW) 2,719 10.2 68.2°
Reaches altitude 10° 10:33:39 10° 269° (W) 1,882 9.5 68.7°
Maximum altitude 10:37:15 28° 209° (SSW) 1,237 9.1 69.4°
Drops below altitude 10° 10:41:50 10° 150° (SSE) 2,435 10.5 70.3°
Sets 10:45:15 0° 139° (SE) 3,716 11.3 70.9°
